Location: Unspecified
(33.2401°N, 0.0000°E)
Time: 00:28:01
(UTC+00:00)

S-56A Canister/Altair - Visible Passes

Search period start: 04 April 2026 00:00
Search period end: 14 April 2026 00:00
Orbit: 632 x 2485 km, 38.9° (Epoch: 28 March)

Date Brightness Start Highest point End Pass type
(mag) Time Alt. Az. Time Alt. Az. Time Alt. Az.
6 Apr 11.3 04:47:31 10° S 04:56:35 23° SE 05:06:51 10° E visible
7 Apr 11.3 04:13:46 10° SSE 04:21:18 18° SE 04:29:46 10° E visible
8 Apr 11.4 03:40:45 10° SSE 03:46:05 14° SE 03:51:57 10° E visible
9 Apr 10.8 05:03:09 10° SSW 05:14:13 43° SE 05:27:45 10° ENE visible
10 Apr 10.8 04:28:36 10° SSW 04:38:46 37° SE 04:51:27 10° ENE visible
11 Apr 10.8 03:54:16 10° S 04:03:27 31° SE 04:15:00 10° ENE visible
12 Apr 10.8 03:20:24 11° S 03:28:14 25° SE 03:38:18 10° E visible
13 Apr 10.7 02:47:38 13° SSE 02:53:08 20° SE 03:01:19 10° E visible
13 Apr 10.1 04:45:55 10° SW 04:56:46 62° SE 05:11:10 10° ENE visible
